Location: ??????????
(42.1626°N, 44.1160°E)
Time: 11:06:46
(UTC+00:00)

SJ-11-01 - Pass Details

Date: 03 March 2021
Orbit: 684 x 700 km, 98.0° (Epoch: 21 April)

Event Time Altitude Azimuth Distance (km) Brightness Sun altitude
Rises 15:37:03 0° 159° (SSE) 3,039 7.4 -8.4°
Reaches altitude 10° 15:39:17 10° 157° (SSE) 2,130 6.6 -8.8°
Maximum altitude 15:43:54 69° 75° (ENE) 742 4.2 -9.7°
Drops below altitude 10° 15:48:36 10° 352° (N) 2,155 6.9 -10.5°
Sets 15:50:52 0° 350° (N) 3,079 7.8 -11.0°
